User: anonymous
Location: Muenchen
(48.1800°N, 11.5800°E)
Time: 09:48:34
(UTC+02:00)
Language:

Cosmos 2233 Rocket - Orbit

View from above orbital plane
View from above orbital plane
View from above satellite
View from above satellite

Ground track
Ground track

The orbit data is extracted from the following two-line orbital elements,

1 22488U 93008B   14212.77638586  .00000060  00000-0  44592-4 0  9145
2 22488 082.9453 140.8235 0023999 292.6734 095.9590 13.77635730 79493
Epoch (UTC): 31 July 2014 18:37:59
Eccentricity: 0.0023999
inclination: 82.9453°
perigee height: 954 km
apogee height: 990 km
right ascension of ascending node: 140.8235°
argument of perigee: 292.6734°
revolutions per day: 13.77635730
mean anomaly at epoch: 95.9590°
orbit number at epoch: 7949

The dashed part of the orbit path shows where the satellite is in the earth's shadow,  

DLR